Location: Bogis-Bossey
(46.3500°N, 6.1667°E)
Time: 23:37:33
(UTC+00:00)

Daily predictions for brighter satellites

Satellite Brightness Start Highest point End
(mag) Time Altitude Azimuth Time Altitude Azimuth Time Altitude Azimuth
Cosmos 1603 3.8 19:01:59 10° NNW 19:07:43 86° WSW 19:13:21 10° SSE
MetOp-A 4.3 19:03:39 10° SE 19:08:36 48° ENE 19:13:17 10° N
SeaSat 1 2.6 19:05:29 10° SE 19:10:21 65° ENE 19:15:15 10° NNW
NOSS 2-3 (E) 3.4 19:09:03 10° SW 19:12:57 84° SE 19:17:28 10° NE
SL-23 DEB 4.2 19:09:12 10° WNW 19:15:10 85° SSW 19:18:49 10° ESE
Cosmos 1151 Rocket 3.5 19:11:11 10° N 19:15:14 40° ENE 19:19:15 10° SE
Cosmos 2151 3.7 19:12:58 10° SSW 19:17:08 58° WNW 19:21:18 10° N
NOSS 3-1 (A) 3.7 19:13:02 10° S 19:17:38 35° ESE 19:22:56 10° NE
Tiangong -0.3 19:16:28 10° SSW 19:18:36 17° SSE 19:20:43 10° ESE
Aureole 3 4.0 19:13:29 10° N 19:19:30 79° E 19:24:09 10° SSE
Cosmos 1356 Rocket 3.5 19:17:09 10° S 19:21:18 57° E 19:25:30 10° NNE
ATLAS 3B R/B 3.8 19:15:44 10° WSW 19:22:13 50° NW 19:29:09 10° NNE
IGS 5A 3.5 19:18:19 10° SSE 19:22:27 89° E 19:26:37 10° NNW
Meteor 1-10 Rocket 4.4 19:19:05 10° N 19:24:33 54° ENE 19:29:58 10° SSE
Landsat 5 4.2 19:21:02 10° N 19:24:50 55° WNW 19:28:43 10° SSW
IRS-1C Rocket 4.2 19:19:51 10° SSE 19:25:08 83° WSW 19:30:27 10° NNW
Cosmos 1459 Rocket 4.3 19:22:58 10° N 19:29:05 52° ENE 19:35:15 10° SSE
Okean 3 Rocket 4.4 19:29:04 10° SSE 19:33:00 32° E 19:36:54 10° NNE
CZ-4C R/B 2.2 19:28:40 10° SW 19:33:25 76° NW 19:39:19 10° NE
Cosmos 921 Rocket 3.6 19:29:58 10° SSW 19:34:08 59° WNW 19:38:17 10° NNE
deb Chang Zheng 4 3.6 19:30:12 10° S 19:34:21 76° WSW 19:38:30 10° NNW
ERBS 4.2 19:32:35 10° W 19:35:10 27° NNW 19:37:44 10° NNE
USA 305 3.8 19:35:29 10° W 19:39:30 48° NNW 19:43:31 10° NE
OBJECT-B 3.3 19:43:03 10° SW 19:44:46 16° W 19:46:29 10° NW
USA 307 3.7 19:41:27 10° WSW 19:45:29 51° NNW 19:49:33 10° NE
Atlas Centaur 2 4.3 19:41:32 10° SSW 19:46:54 19° SSE 19:50:33 14° SE
H-2A R/B 2.5 19:44:41 10° NNE 19:48:44 39° E 19:52:39 10° SSE
SPOT 3 Rocket 4.5 19:45:40 14° ESE 19:49:24 32° ENE 19:53:59 10° N
Cosmos 1725 Rocket 4.4 19:44:10 10° N 19:50:13 46° ENE 19:55:30 14° SE
Cosmos 1766 Rocket 3.6 19:45:56 10° S 19:50:15 61° E 19:54:39 10° NNE
MOS 1 4.3 19:45:28 10° SSE 19:51:07 73° ENE 19:56:47 10° N
CZ-4B R/B 2.5 19:51:21 10° NE 19:53:53 22° E 19:54:30 21° ESE
Resurs 01 Rocket 1.6 19:50:30 10° SSE 19:54:51 75° ENE 19:59:17 10° N
Cosmos 2082 Rocket 4.4 19:53:06 10° N 19:55:31 13° NE 19:57:56 10° ENE
Cosmos 1727 Rocket 4.3 19:50:52 10° SSW 19:56:59 69° W 20:03:11 10° N
Cosmos 2123 Rocket 4.2 19:51:34 10° SSE 19:57:37 52° E 20:03:39 10° NNE
Meteor 1-27 Rocket 3.8 19:54:27 10° N 20:00:06 68° ENE 20:05:12 13° SSE
Cosmos 1802 Rocket 4.1 19:53:58 10° N 20:00:26 71° E 20:06:38 11° SSE
Cosmos 44 4.0 19:56:28 10° NNW 20:00:30 35° NE 20:03:13 18° E
H-2A R/B 3.4 19:56:47 10° S 20:01:05 53° W 20:05:30 10° NNW
SPOT 1/Viking Rocket 3.5 19:56:49 11° SSE 20:01:54 80° ENE 20:07:09 10° NNW
Cosmos 1356 4.2 19:59:22 10° N 20:02:20 31° ENE 20:03:26 25° ESE
Cosmos 1844 3.7 19:57:46 10° SSW 20:03:32 75° ESE 20:09:15 10° NNE
Cosmos 1328 Rocket 3.4 19:59:12 10° N 20:03:32 79° E 20:07:13 14° SSE
Cosmos 1602 4.2 20:01:23 18° SSE 20:03:51 39° E 20:07:30 10° NNE
NOSS 2-2 (E) 2.7 20:01:51 10° SSW 20:05:07 70° SE 20:08:33 10° NE
USA 281 3.9 19:59:03 10° S 20:05:27 52° WSW 20:11:54 10° NNW
Ariane Rocket 3.0 20:03:24 16° SSE 20:07:21 66° ENE 20:12:23 10° N
Meteor 1-20 Rocket 4.4 20:03:45 10° SSE 20:09:06 50° E 20:14:37 10° NNE
Cosmos 2100 Rocket 4.2 20:04:08 10° NNW 20:10:19 75° W 20:16:25 10° S
NOSS 2-2 (C) 2.8 20:07:28 10° SSW 20:10:46 57° SE 20:14:07 10° NE
Cosmos 1400 Rocket 2.8 20:06:58 10° SSW 20:11:01 85° W 20:15:05 10° N
Cosmos 2278 Rocket 3.8 20:13:23 15° E 20:13:23 15° E 20:15:59 10° ENE
ARIANE 5 R/B 4.5 20:13:50 14° E 20:15:12 16° ENE 20:17:51 10° NNE
ATLAS 5 CENTAUR R/B 3.8 20:10:53 10° WNW 20:15:48 31° WSW 20:21:31 10° S
USA 245 3.7 20:15:27 29° ESE 20:16:29 38° ENE 20:20:10 10° N
USA 308 4.3 20:14:37 10° W 20:18:30 38° NNW 20:22:23 10° NE
Cosmos 1500 Rocket 4.4 20:17:22 26° ESE 20:18:39 31° E 20:22:30 10° NNE
Cosmos 1680 Rocket 4.1 20:16:40 22° SSE 20:19:08 33° ESE 20:23:47 10° NE
Cosmos 1538 Rocket 4.0 20:14:01 10° SSW 20:19:11 83° WNW 20:24:26 10° NNE
CARTOSAT-1 3.5 20:16:58 24° SSE 20:19:30 69° ENE 20:23:49 10° N
Cosmos 1844 Rocket 3.0 20:15:34 10° SW 20:21:06 70° WNW 20:26:42 10° NNE
NOSS 3-1 (C) 4.3 20:20:25 10° WSW 20:25:32 49° NW 20:31:40 10° NNE
ASTEX 1 3.8 20:21:28 10° N 20:26:19 64° W 20:31:07 10° SSW
USA 306 4.5 20:23:30 10° W 20:27:17 33° NNW 20:31:04 10° NE
Cosmos 923 Rocket 4.1 20:23:39 10° S 20:28:44 54° ESE 20:33:53 10° NNE
Cosmos 2228 Rocket 4.2 20:29:12 10° NNE 20:33:11 28° ENE 20:34:08 26° E
Spot 2 Rocket 3.8 20:32:21 30° SE 20:34:37 52° ENE 20:39:33 10° N
ERS-1 Rocket 3.3 20:34:23 31° SE 20:36:25 48° ENE 20:41:15 10° N
Cosmos 2233 Rocket 4.0 20:33:43 10° N 20:40:02 71° E 20:43:38 27° SSE
MetOp-B 4.3 20:36:41 21° S 20:40:24 73° WSW 20:45:47 10° NNW
Terra 2.4 20:39:01 32° ESE 20:40:29 41° ENE 20:44:58 10° N
USA 229 DEB 3.6 20:34:35 10° SW 20:40:53 87° NW 20:47:45 10° NE
USA 229 3.5 20:34:41 10° SW 20:40:59 88° NW 20:47:51 10° NE
SPOT 5 3.1 20:39:11 33° SE 20:41:19 62° ENE 20:46:28 10° N
Cosmos 389 Rocket 4.1 20:45:59 21° NE 20:45:59 21° NE 20:47:34 10° NE
Helios 1A Rocket 3.5 20:44:47 37° E 20:45:27 40° ENE 20:49:17 10° N
Cosmos 2112 Rocket 4.2 20:44:16 33° SSE 20:46:10 49° ESE 20:51:09 10° NNE
Sich 1 3.8 20:48:05 34° E 20:48:05 34° E 20:52:01 10° NNE
Cosmos 1378 3.3 20:45:20 10° N 20:48:54 51° ENE 20:49:02 50° E
Cosmos 1371 Rocket 4.2 20:47:04 10° NNW 20:52:19 57° ENE 20:54:00 39° ESE
NOSS 2-2 (D) 3.8 20:50:33 10° WSW 20:53:45 48° NW 20:57:09 10° NNE
Cosmos 1624 Rocket 4.3 20:49:17 10° NNW 20:54:30 55° ENE 20:56:08 39° ESE
Cosmos 405 2.7 20:54:55 74° ENE 20:54:55 74° ENE 20:58:07 10° NNE
Tiangong 0.1 20:52:03 10° WSW 20:53:02 17° SW 20:53:02 17° SW
Cosmos 1666 2.5 20:58:44 60° SSW 20:59:21 87° W 21:03:07 10° N
Cosmos 1346 Rocket 3.9 20:56:24 10° NNW 21:00:11 40° W 21:01:56 26° SSW
Gblst 52 Del rocket 4.5 20:54:43 10° SW 21:00:54 73° SSE 21:08:07 10° ENE
Cosmos 1441 Rocket 3.7 21:00:43 10° NNW 21:04:22 53° W 21:05:05 44° SW
Cosmos 1408 Rocket 4.3 21:03:13 17° SSW 21:06:23 50° WNW 21:10:45 10° N
Meteor 2-4 Rocket 3.8 21:00:59 10° N 21:06:55 69° ENE 21:08:49 43° SE
NOSS 3-1 (A) 4.3 21:03:09 10° WSW 21:08:16 46° NW 21:14:23 10° NNE
DELTA 2 R/B (1) 4.2 21:05:50 10° SW 21:10:07 35° S 21:10:07 35° S
Cosmos 1315 Rocket 3.3 21:14:31 40° SW 21:15:42 58° WNW 21:19:39 10° N
Cosmos 1833 Rocket 2.6 21:10:22 10° NNW 21:16:03 79° ENE 21:17:32 51° SE
Meteor 1-18 Rocket 4.2 21:10:18 10° NNW 21:16:12 87° W 21:18:10 44° S
Cosmos 1805 Rocket 3.4 21:17:51 71° S 21:18:18 87° ESE 21:22:42 10° N
COSMOS 2406 3.6 21:14:28 10° NNW 21:20:00 50° ENE 21:21:21 41° E
Cosmos 1544 3.3 21:20:37 65° N 21:20:37 65° N 21:23:46 10° N
H-2A R/B 4.4 21:21:04 10° NNW 21:24:25 23° WNW 21:27:43 10° WSW
CZ-4B R/B 3.8 21:22:45 10° NNW 21:25:09 20° WNW 21:26:45 14° WSW
Cosmos 2056 Rocket 3.4 21:22:33 10° NNW 21:27:43 81° WSW 21:28:34 62° S
Cosmos 1464 Rocket 4.1 21:21:58 10° N 21:28:12 59° ENE 21:29:34 49° ESE
Cosmos 1743 Rocket 4.2 21:29:28 37° SW 21:30:47 51° WNW 21:35:04 10° N
Cosmos 1666 Rocket 4.3 21:32:11 41° ENE 21:32:11 41° ENE 21:35:29 10° NNE
Resurs 01 Rocket 4.3 21:30:07 10° WSW 21:31:52 12° W 21:33:37 10° WNW
Atlas Centaur 2 4.3 21:29:13 10° SW 21:33:05 21° SSW 21:33:05 21° SSW
Meteor 1-5 Rocket 4.2 21:35:22 46° SSW 21:37:12 85° W 21:43:08 10° N
Cosmos 2082 Rocket 2.5 21:35:28 10° NNW 21:40:58 53° ENE 21:41:48 49° E
Meteor 1-14 Rocket 4.1 21:40:06 59° S 21:41:14 89° E 21:46:53 10° NNE
Cosmos 44 4.2 21:37:41 10° NW 21:41:38 33° WSW 21:41:38 33° WSW
Cosmos 2034 Rocket 4.2 21:37:22 10° N 21:43:29 54° ENE 21:44:24 50° ESE
ATLAS CENTAUR R/B 4.1 21:43:53 10° N 21:46:43 15° NNE 21:49:11 11° ENE
Cosmos 1513 Rocket 4.5 21:41:10 10° N 21:47:34 88° W 21:49:04 56° S
CENTAUR R/B 3.7 21:40:17 10° NW 21:48:06 53° NE 21:52:28 30° ESE
NOSS 3-2 (A) 4.5 21:42:10 10° NW 21:49:19 54° NE 21:52:57 33° ESE
CZ-2C R/B 4.2 21:46:05 10° N 21:50:29 56° WNW 21:51:16 49° WSW
ARIANE 5 R/B 2.9 21:51:22 61° W 21:51:22 61° W 21:55:31 10° NNW
Cosmos 1707 Rocket 3.7 21:47:31 10° N 21:51:35 73° NNW 21:51:35 73° NNW
Cosmos 2278 Rocket 2.1 21:55:10 62° SSW 21:56:11 87° WNW 22:01:54 10° NNE
Cosmos 1633 Rocket 3.6 22:00:03 54° NNE 22:00:03 54° NNE 22:03:31 10° NNE
Cosmos 1816 Rocket 4.4 22:01:32 62° ESE 22:01:59 64° E 22:08:13 10° NNE
Cosmos 1943 Rocket 3.3 22:07:46 30° ENE 22:07:46 30° ENE 22:11:12 10° NE
Meteor 2-13 Rocket 4.3 22:06:48 70° S 22:07:35 89° E 22:13:42 10° N
Cosmos 2228 Rocket 4.5 22:07:19 10° NNW 22:11:22 31° W 22:11:37 31° W
Spot 4 4.5 22:12:55 47° NE 22:12:55 47° NE 22:17:08 10° N
Terra 3.4 22:17:54 24° WSW 22:18:23 25° W 22:22:18 10° NW
Cosmos 1536 4.3 22:21:07 32° NNE 22:21:07 32° NNE 22:23:21 10° N
Cosmos 1452 Rocket 3.6 22:19:17 10° NNW 22:24:10 74° WNW 22:24:10 74° WNW
Tsikada Rocket 3.9 22:25:44 71° ESE 22:25:51 72° E 22:32:07 10° NNE
USA 234 3.1 22:24:15 10° NE 22:30:49 72° SE 22:31:02 72° SSE
Meteor 2-8 Rocket 4.3 22:25:01 10° N 22:31:12 77° E 22:31:21 76° E
Meteor 1-11 Rocket 3.7 22:33:56 78° WNW 22:33:56 78° WNW 22:39:20 10° N
Meteor 1-13 Rocket 4.4 22:31:57 10° NNW 22:37:39 62° W 22:37:39 62° W
Cosmos 2369 Rocket 3.8 22:48:46 23° ENE 22:48:46 23° ENE 22:51:32 10° NE
ADEOS Rocket 3.2 22:49:59 74° S 22:50:43 85° WSW 22:57:22 10° NNW
ALOS 2 3.8 23:03:16 41° NNW 23:03:16 41° NNW 23:06:09 10° NNW
NOSS 3-2 (C) 4.1 22:59:40 10° NW 23:07:10 78° NE 23:09:05 57° ESE
Cosmos 839 Rocket 4.5 23:11:04 47° ENE 23:11:04 47° ENE 23:15:54 10° NE
Meteor 2-9 Rocket 4.4 23:10:54 64° NNE 23:10:54 64° NNE 23:15:28 10° NNE
Cosmos 1634 Rocket 4.0 23:04:41 10° NNW 23:10:52 71° W 23:10:52 71° W
Cosmos 1302 Rocket 4.4 23:09:20 10° NNW 23:13:40 60° N 23:13:40 60° N
Cosmos 2297 3.9 23:24:59 69° N 23:24:59 69° N 23:30:02 10° NNE
USA 238 DEB 3.8 23:17:20 10° NW 23:24:40 88° NE 23:25:32 73° SE
Cosmos 2082 Rocket 3.8 23:20:09 10° NW 23:23:38 24° W 23:23:38 24° W
USA 238 3.8 23:17:27 10° NW 23:24:47 87° NE 23:25:39 73° SE
Lacrosse 5 3.2 23:28:30 34° NE 23:28:30 34° NE 23:31:20 10° NE
ATLAS CENTAUR R/B 2.9 23:21:50 10° NNW 23:25:07 40° N 23:25:07 40° N
Cosmos 1375 Rocket 4.5 23:36:18 87° NW 23:36:18 87° NW 23:42:56 10° NE
Nadezhda 4 Rocket 4.2 23:38:12 58° E 23:38:12 58° E 23:44:00 10° NNE
CENTAUR R/B 3.4 23:31:05 10° NW 23:39:08 55° WSW 23:39:36 54° SW
NOSS 3-2 (A) 4.4 23:33:04 10° NW 23:40:19 49° WSW 23:40:19 49° WSW
Cosmos 2278 Rocket 4.5 23:37:12 10° W 23:41:08 19° NW 23:45:04 10° N
Cosmos 1943 Rocket 3.1 23:49:16 39° WNW 23:49:48 39° NW 23:55:04 10° NNE
Lacrosse 5 rocket 3.6 23:51:09 20° N 23:51:09 20° N 23:53:43 10° NE
